Flag for Canada Weather past 2 weeks in Yorkton, Saskatchewan, Canada

Now
61 °F

Overcast.


Feels Like: 61 °F
Forecast: 53 / 81 °F
Wind: 6 mph from Northeast

Location: Yorkton

Current Time: May 23, 2015 at 11:16:20 PM

Latest Report: May 23, 2015 at 10:00 PM


Visibility: 9 mi

Pressure: 30.08 "Hg

Humidity: 55%

Dew point: 45 °F

Location of YorktonLocation

Historic Weather in Yorkton — Graph

°F

Yorkton temperature yesterday

Maximum temperature yesterday: 79 °F (at 2:00 PM)
Minimum temperature yesterday: 45 °F (at 5:00 AM)
Average temperature yesterday: 66 °F

Past Weeks' High & Low Weather Summary

 TemperatureHumidityPressure
High81 °F (May 23, 2:00 PM)93% (May 9, 2:00 AM)30.54 "Hg (May 9, 2:00 AM)
Low27 °F (May 18, 5:00 AM)15% (May 19, 4:00 PM)29.83 "Hg (May 16, 3:00 PM)
Average51 °F52%30.19 "Hg
* Reported May 8 10:00 PM — May 23 10:00 PM, Yorkton, Weather by CustomWeather, © 2015

Note: Actual official high and low records may vary slightly from our data, if they occured in-between our weather recording intervals... More about our weather records

Advertising

Yorkton weather history for previous 24 hours

 ConditionsComfort  
Time TempWeatherWind HumidityBarometerVisibility
10:00 PM
Sat, May 23
61 °FOvercast.6 mph55%30.08 "Hg9 mi
9:00 PM64 °FPassing clouds.5 mph49%30.08 "Hg9 mi
8:00 PM70 °FSunny.14 mph35%30.08 "Hg9 mi
7:00 PM75 °FSunny.10 mph22%30.06 "Hg9 mi
6:00 PM79 °FPartly sunny.10 mph21%30.07 "Hg9 mi
5:00 PM81 °FPassing clouds.9 mph18%30.06 "Hg9 mi
4:00 PM81 °FSunny.5 mph17%30.07 "Hg9 mi
3:00 PM81 °FPassing clouds.9 mph18%30.08 "Hg9 mi
2:00 PM81 °FSunny.10 mph18%30.07 "Hg9 mi
1:00 PM79 °FSunny.6 mph18%30.08 "Hg6 mi
12:00 PM77 °FSunny.7 mph19%30.09 "Hg9 mi
11:00 AM77 °FSunny.10 mph21%30.09 "Hg9 mi
10:00 AM75 °FSunny.9 mph27%30.09 "Hg9 mi
9:00 AM73 °FSunny.10 mph29%30.10 "Hg9 mi
8:56 AM73 °FSunny.12 mph29%30.09 "Hg9 mi
8:00 AM66 °FSunny.9 mph43%30.10 "Hg9 mi
7:00 AM59 °FSunny.8 mph51%30.10 "Hg9 mi
6:00 AM54 °FSunny.7 mph63%30.10 "Hg9 mi
5:00 AM48 °FSunny.7 mph71%30.10 "Hg9 mi
4:00 AM46 °FClear.2 mph76%30.10 "Hg9 mi
3:00 AM48 °FClear.5 mph71%30.09 "Hg9 mi
2:00 AM57 °FClear.10 mph48%30.07 "Hg9 mi
1:00 AM55 °FClear.8 mph55%30.06 "Hg9 mi
12:00 AM59 °FClear.8 mph45%30.06 "Hg9 mi
11:00 PM
Fri, May 22
63 °FClear.7 mph37%30.06 "Hg9 mi
Weather by CustomWeather, © 2015

See weather overviewHow to use our weather pages